GRARBER Weather Reports


Display with metric or nautical units.
time (UTC)temp
F
wind
direction
speed
MPH
gust
MPH
rain 1hr
in
rain 24hr
in
rain mn
in
humidity
%
barometer
mb
20260509111654 52 320 6.0 0.0 0.00 0.00 0.00 62
20260509101855 50 340 7.0 0.0 0.00 0.00 0.00 66
20260509091655 50 320 6.0 0.0 0.00 0.00 0.00 71
20260509081655 52 330 7.0 0.0 0.00 0.00 0.00 62
20260509071754 45 280 5.0 0.0 0.00 0.00 0.00 70
20260509061655 45 250 6.0 0.0 0.00 0.00 0.00 75
20260509051654 41 250 8.0 0.0 0.00 0.00 0.00 80
20260509041855 41 260 9.0 0.0 0.00 0.00 0.00 80
20260509031656 41 220 8.0 0.0 0.00 0.00 0.00 80
20260509021655 43 200 7.0 0.0 0.00 0.00 0.00 81
20260509011756 43 230 8.0 0.0 0.00 0.00 0.00 75
20260509001656 41 140 6.0 0.0 0.00 0.00 0.00 86
20260508231654 41 160 3.0 0.0 0.00 0.00 0.00 86
20260508221856 39 100 6.0 0.0 0.00 0.00 0.00 99
20260508211655 39 80 8.0 0.0 0.00 0.00 0.00 99
20260508201656 41 70 7.0 0.0 0.00 0.00 0.00 93
20260508191755 41 60 9.0 0.0 0.00 0.00 0.00 93
20260508181655 43 50 7.0 0.0 0.00 0.00 0.00 86
20260508171654 46 40 5.0 0.0 0.00 0.00 0.00 75
20260508161855 46 320 5.0 0.0 0.00 0.00 0.00 75
20260508151656 46 330 5.0 0.0 0.00 0.00 0.00 70
20260508141655 46 320 6.0 0.0 0.00 0.00 0.00 70
20260508131755 50 320 7.0 0.0 0.00 0.00 0.00 66
20260508121655 46 290 2.0 0.0 0.00 0.00 0.00 70